sat.trackr.live / text

‹ back to catalog

STARLINK-35269

NORAD 65593 · 2025-207B

PAYLOAD ACTIVE UNKNOWN

§ Identity

Operator
Country
US
Launch date
2025-09-13
Launch site
AFWTR
Launch vehicle
Mass (kg)
RCS (m²)

Purposes: comms

External: N2YO · Heavens-Above · Gunter

§ Orbital elements

Epoch: 2026-05-25T02:59:49.142976Z

Period
95.64 min
Inclination
97.4505°
Eccentricity
0.0002152
Mean motion
15.05640035 rev/d
Perigee alt
548.1 km
Apogee alt
551.0 km
Semi-major
6,927.7 km
B*
-2.0604e-4
RAAN
213.6505°
Arg perigee
174.7444°
Mean anomaly
185.3806°
Rev number
3,975

§ Raw data

STARLINK-352691 65593U 25207B   26145.12487434 -.00003030  00000+0 -20604-3 0  99972 65593  97.4505 213.6505 0002152 174.7444 185.3806 15.05640035 39757

JSON: /api/v1/satellites/65593 · /tle

For live sub-satellite position, see the globe view (requires WebGL).

§ Visibility from observer

Set your observer location to see the next 7 days of passes ≥ 10°. The values pass through the URL so the page stays shareable.

No JS? Fill the form by hand. The geolocation button needs JavaScript.